TimeCDT,TemperatureF,Dew PointF,Humidity,Sea Level PressureIn,VisibilityMPH,Wind Direction,Wind SpeedMPH,Gust SpeedMPH,PrecipitationIn,Events,Conditions,WindDirDegrees,DateUTC
12:56 AM,51.1,42.1,71,29.96,9.0,North,15.0,-,N/A,,Mostly Cloudy,350,2012-10-28 05:56:00
1:56 AM,48.9,43.0,80,29.96,8.0,NW,6.9,-,N/A,,Mostly Cloudy,320,2012-10-28 06:56:00
2:56 AM,48.0,43.0,83,29.95,9.0,NW,6.9,-,N/A,,Mostly Cloudy,320,2012-10-28 07:56:00
3:56 AM,48.0,43.0,83,29.95,8.0,NNW,9.2,-,N/A,,Mostly Cloudy,330,2012-10-28 08:56:00
4:56 AM,46.9,42.1,83,29.96,9.0,NW,8.1,-,N/A,,Mostly Cloudy,310,2012-10-28 09:56:00
5:07 AM,46.4,42.8,87,29.96,10.0,NW,6.9,-,N/A,,Partly Cloudy,310,2012-10-28 10:07:00
5:56 AM,45.0,41.0,86,29.97,10.0,NW,6.9,-,N/A,,Scattered Clouds,310,2012-10-28 10:56:00
6:56 AM,44.1,39.9,85,29.99,10.0,NW,8.1,-,N/A,,Partly Cloudy,320,2012-10-28 11:56:00
7:56 AM,45.0,39.9,82,30.01,10.0,NW,8.1,-,N/A,,Clear,320,2012-10-28 12:56:00
8:56 AM,48.9,39.0,69,30.02,10.0,NNW,10.4,21.9,N/A,,Clear,340,2012-10-28 13:56:00
9:56 AM,53.6,39.2,58,30.01,10.0,NNW,13.8,20.7,N/A,,Clear,330,2012-10-28 14:56:00
10:56 AM,57.9,37.9,47,30.01,10.0,NNW,20.7,28.8,N/A,,Clear,340,2012-10-28 15:56:00
11:56 AM,60.1,37.9,44,29.99,10.0,NNW,19.6,29.9,N/A,,Partly Cloudy,330,2012-10-28 16:56:00
12:56 PM,63.0,37.9,40,29.97,10.0,North,21.9,27.6,N/A,,Partly Cloudy,350,2012-10-28 17:56:00
1:56 PM,64.0,37.0,37,29.95,10.0,NNW,16.1,25.3,N/A,,Partly Cloudy,340,2012-10-28 18:56:00
2:56 PM,64.0,36.0,35,29.95,10.0,NW,16.1,25.3,N/A,,Clear,320,2012-10-28 19:56:00
3:56 PM,64.0,36.0,35,29.95,10.0,NW,16.1,24.2,N/A,,Clear,320,2012-10-28 20:56:00
4:56 PM,63.0,34.0,34,29.97,10.0,NNW,17.3,27.6,N/A,,Clear,340,2012-10-28 21:56:00
5:56 PM,59.0,34.0,39,29.99,10.0,NNW,11.5,20.7,N/A,,Clear,330,2012-10-28 22:56:00
6:56 PM,55.9,35.1,45,30.01,10.0,NW,6.9,-,N/A,,Clear,320,2012-10-28 23:56:00
7:56 PM,53.1,36.0,52,30.03,10.0,NW,8.1,-,N/A,,Clear,320,2012-10-29 00:56:00
8:56 PM,52.0,34.0,50,30.05,10.0,NW,9.2,-,N/A,,Clear,320,2012-10-29 01:56:00
9:56 PM,52.0,35.1,53,30.07,10.0,NW,12.7,17.3,N/A,,Clear,320,2012-10-29 02:56:00
10:56 PM,50.0,35.1,57,30.08,10.0,NW,6.9,-,N/A,,Clear,310,2012-10-29 03:56:00
11:56 PM,46.9,36.0,66,30.09,10.0,NW,8.1,-,N/A,,Clear,320,2012-10-29 04:56:00